Location: Garden Park
(34.0906°N, 117.2695°W)
Time: 15:33:18
(UTC+00:00)

Hubble Space Telescope - Pass Details

Date: 18 August 2024
Orbit: 507 x 509 km, 28.5° (Epoch: 07 September)

Event Time Altitude Azimuth Distance (km) Brightness Sun altitude
Exits shadow 12:30:53 12° 248° (WSW) 1,572 2.4 -9.1°
Maximum altitude 12:33:54 28° 191° (S) 960 1.8 -8.5°
Drops below altitude 10° 12:37:20 10° 130° (SE) 1,714 3.7 -7.9°
Sets 12:39:45 0° 119° (ESE) 2,599 4.9 -7.4°
